Weather History for Exeter, United Kingdom

Change the Weather History Date:

Friday, November 9, 2012

  Actual Average Record
Temperature  
Mean Temperature 48 °F -  
Max Temperature 51 °F 50 °F 59 °F (1999)
Min Temperature 44 °F 38 °F 32 °F (2001)
Degree Days  
Heating Degree Days 18    
Moisture  
Dew Point 45 °F    
Average Humidity 85    
Maximum Humidity 100    
Minimum Humidity 69    
Precipitation  
Precipitation 0.08 in - - ()
Sea Level Pressure  
Sea Level Pressure 29.74 in    
Wind  
Wind Speed 6 mph ()    
Max Wind Speed 13 mph    
Max Gust Speed -    
Visibility 6.2 miles    
Events Rain    
Averages and records for this station are not official NWS values.
T = Trace of Precipitation, MM = Missing Value Source: Averaged Metar Reports

Daily Weather History Graph

Daily Weather History Graph

Search for Another Location

Airport:

Trip Planner

Search our weather history database for the weather conditions in past years. The results will help you decide how hot, cold, wet, or windy it might be!

Date:

Astronomy

Nov. 09, 2012 Rise Set
Actual Time 7:19 AM GMT 4:34 PM GMT
Civil Twilight 6:43 AM GMT 5:10 PM GMT
Nautical Twilight 6:04 AM GMT 5:49 PM GMT
Astronomical Twilight 5:25 AM GMT 6:28 PM GMT
Moon 1:31 AM GMT (11/9) 2:07 PM GMT (11/9)
Length of Visible Light 10h 26m
Length of Day
9h 15m
Waning Crescent, 25% of the Moon is Illuminated
Nov 9
Waning Crescent
Nov 13
New
Nov 20
First Quarter
Nov 28
Full
Dec 6
Last Quarter

Hourly Weather History & Observations

Time (GMT) Temp. Windchill Dew Point Humidity Pressure Visibility Wind Dir Wind Speed Gust Speed Precip Events Conditions
12:20 AM 44.6 °F 43.1 °F 41.0 °F 87% 30.04 in 6.2 mi WNW 3.5 mph - N/A   Mostly Cloudy
12:50 AM 44.6 °F 43.1 °F 41.0 °F 87% 30.01 in 6.2 mi West 3.5 mph - N/A   Scattered Clouds
1:20 AM 46.4 °F - 41.0 °F 81% 30.01 in 6.2 mi SW 1.2 mph - N/A   Mostly Cloudy
1:50 AM 44.6 °F 43.1 °F 41.0 °F 87% 30.01 in 6.2 mi South 3.5 mph - N/A   Mostly Cloudy
2:50 AM 45 °F - 43 °F 91%  in - NNW 1.2 mph - -  
5:50 AM 46 °F - 44 °F 88%  in - WSW 3.5 mph - -  
6:20 AM 46.4 °F - 42.8 °F 87% 29.92 in 6.2 mi Variable 2.3 mph - N/A   Mostly Cloudy
6:50 AM 46.4 °F 44.3 °F 42.8 °F 87% 29.89 in 6.2 mi SSE 4.6 mph - N/A   Mostly Cloudy
7:20 AM 48.2 °F - 42.8 °F 82% 29.89 in 6.2 mi SW 5.8 mph - N/A   Mostly Cloudy
7:50 AM 48.2 °F - 42.8 °F 82% 29.89 in 6.2 mi South 5.8 mph - N/A   Mostly Cloudy
8:20 AM 48.2 °F - 42.8 °F 82% 29.89 in 6.2 mi South 5.8 mph - N/A   Mostly Cloudy
8:50 AM 49 °F - 44 °F 77%  in - SSW 4.6 mph - -  
8:50 AM 48.2 °F - 42.8 °F 82% 29.86 in 6.2 mi South 5.8 mph - N/A   Mostly Cloudy
9:20 AM 50.0 °F - 44.6 °F 82% 29.86 in 6.2 mi Variable 3.5 mph - N/A   Mostly Cloudy
9:50 AM 50.0 °F - 44.6 °F 82% 29.86 in 6.2 mi SSW 8.1 mph - N/A   Mostly Cloudy
10:20 AM 51.8 °F - 42.8 °F 71% 29.83 in 6.2 mi SSW 11.5 mph - N/A   Mostly Cloudy
10:50 AM 51.8 °F - 42.8 °F 71% 29.83 in 6.2 mi SSW 10.4 mph - N/A   Mostly Cloudy
11:20 AM 51.8 °F - 44.6 °F 76% 29.83 in 6.2 mi South 10.4 mph - N/A   Mostly Cloudy
11:50 AM 51 °F - 46 °F 78%  in - SW 10.4 mph - -  
11:50 AM 51.8 °F - 46.4 °F 82% 29.80 in 6.2 mi SSW 12.7 mph - N/A   Mostly Cloudy
12:20 PM 51.8 °F - 46.4 °F 82% 29.77 in 6.2 mi South 10.4 mph - N/A   Mostly Cloudy
12:50 PM 51.8 °F - 46.4 °F 82% 29.77 in 6.2 mi South 11.5 mph - N/A   Mostly Cloudy
1:20 PM 50.0 °F - 44.6 °F 82% 29.74 in 6.2 mi South 11.5 mph - N/A   Mostly Cloudy
1:50 PM 51.8 °F - 44.6 °F 76% 29.74 in 6.2 mi South 11.5 mph - N/A   Mostly Cloudy
2:20 PM 51.8 °F - 44.6 °F 76% 29.71 in 6.2 mi South 12.7 mph - N/A   Mostly Cloudy
2:50 PM 51 °F - 45 °F 74%  in - SSW 9.2 mph - -  
2:50 PM 50.0 °F - 44.6 °F 82% 29.71 in 6.2 mi South 11.5 mph - N/A   Mostly Cloudy
3:20 PM 50.0 °F - 44.6 °F 82% 29.68 in 6.2 mi South 10.4 mph - N/A   Mostly Cloudy
3:50 PM 50.0 °F - 44.6 °F 82% 29.68 in 6.2 mi South 8.1 mph - N/A   Mostly Cloudy
4:20 PM 50.0 °F - 44.6 °F 82% 29.65 in 6.2 mi South 9.2 mph - N/A   Mostly Cloudy
4:50 PM 50.0 °F - 44.6 °F 82% 29.65 in 6.2 mi South 9.2 mph - N/A   Mostly Cloudy
5:20 PM 50.0 °F - 42.8 °F 76% 29.62 in 6.2 mi South 9.2 mph - N/A   Mostly Cloudy
5:50 PM 51 °F - 44 °F 69%  in - SSW 10.4 mph - -  
5:50 PM 50.0 °F - 42.8 °F 76% 29.62 in 6.2 mi South 12.7 mph - N/A   Mostly Cloudy
6:20 PM 50.0 °F - 44.6 °F 82% 29.62 in 6.2 mi South 10.4 mph - N/A   Mostly Cloudy
6:50 PM 50.0 °F - 44.6 °F 82% 29.62 in 6.2 mi SSW 10.4 mph - N/A   Mostly Cloudy
7:20 PM 50.0 °F - 46.4 °F 87% 29.59 in 6.2 mi SSW 10.4 mph - N/A   Mostly Cloudy
7:50 PM 48.2 °F - 46.4 °F 93% 29.59 in 6.2 mi SSW 10.4 mph - N/A Rain Light Rain
8:20 PM 48.2 °F - 46.4 °F 93% 29.59 in 6.2 mi SSW 6.9 mph - N/A   Mostly Cloudy
8:50 PM 48 °F - 47 °F 97%  in - SW 3.5 mph - -  
8:50 PM 48.2 °F - 46.4 °F 93% 29.59 in 6.2 mi South 4.6 mph - N/A   Light Drizzle
9:20 PM 48.2 °F - 46.4 °F 93% 29.56 in 6.2 mi South 5.8 mph - N/A Rain Light Rain
9:50 PM 48.2 °F - 48.2 °F 100% 29.56 in 6.2 mi South 6.9 mph - N/A Rain Rain
10:20 PM 48.2 °F - 48.2 °F 100% 29.53 in 6.2 mi SSE 4.6 mph - N/A Rain Rain
10:50 PM 48.2 °F - 48.2 °F 100% 29.53 in 6.2 mi South 4.6 mph - N/A Rain Light Rain
11:20 PM 48.2 °F - 48.2 °F 100% 29.53 in 6.2 mi South 4.6 mph - N/A Rain Light Rain
11:50 PM 48 °F - 48 °F 100%  in - SW 2.3 mph - -  
11:50 PM 48.2 °F - 48.2 °F 100% 29.50 in 6.2 mi SSW 4.6 mph - N/A Rain Light Rain